Powrót do katalogu

SL-14 DEB

AktywnyPO
NORAD 69736·DEBRIS·🇨🇳 China

Wystrzelony Jan 17, 1986 z Plesetsk Cosmodrome

Loading…

Następne Przeloty (najbliższe 24 godziny)

TLE

NieaktualneSource: Space-Track

Epoka: Aug 29, 2026, 08:25 UTC

1 69736U 86006E   26241.35094926  .00002930  00000-0  37626-3 0  9995
2 69736  82.5497 107.8515 0119149 115.1157 246.2473 14.75910439 66093

Śledź SL-14 DEB w czasie rzeczywistym z AllMySat

Download on the App Store